Temp
13 14 14 13 13 13 13 13 13 14 14 14 14 15 15 15 16 16 16 16 16 16 16 16 16 16 15 15 15 15 15 16 16 16 17 17 17 17 15 16 16 13 13 13 13 14 12
13 13 13 14 14 13 13 13 13 13 14 14 14 14 15 15 15 16 16 16 16 16 16 16 15 15 15 15 15 15 15 16 16 16 16 16 16 16 16 15 14 14 13 13 13 12 11
13 13 13 13 14 14 14 13 13 13 13 14 14 14 14 15 15 16 16 16 16 15 15 15 15 15 15 14 14 15 15 15 15 16 16 16 16 16 16 14 15 14 12 13 12 12 11
13 13 13 13 13 13 14 14 13 14 14 14 14 14 14 14 15 15 16 16 15 15 15 15 14 14 14 14 14 14 14 15 15 15 15 15 16 16 16 15 15 13 11 12 12 12 11
12 12 13 12 12 13 13 14 14 13 13 14 14 14 14 14 15 15 15 15 15 15 15 14 14 14 13 13 13 13 14 14 14 15 15 15 15 15 15 10 10 11 11 11 13 11 10
13 12 12 13 12 12 12 13 13 13 13 14 14 14 14 14 14 15 15 15 15 14 14 14 14 13 13 13 13 13 13 14 14 14 15 15 14 9 8 9 10 11 12 12 12 10 10
11 13 12 12 12 12 12 12 12 13 13 13 13 14 14 14 14 15 15 15 14 14 14 14 13 13 13 12 12 12 13 13 13 13 12 13 10 10 11 11 13 14 13 14 13 11 11
11 11 12 12 12 12 12 11 12 12 13 13 13 13 14 14 14 14 14 14 14 13 13 13 12 12 12 12 12 12 13 13 13 12 12 10 11 12 13 12 13 13 13 13 12 11 11
10 11 11 11 12 12 12 12 11 12 12 12 13 13 14 14 14 14 14 14 14 13 12 12 12 11 12 12 12 12 12 12 12 12 12 11 12 13 13 13 13 12 12 12 13 12 11
9 9 11 11 11 11 11 11 12 11 11 12 12 13 13 13 14 13 13 13 13 13 8 11 11 11 11 11 11 12 12 12 12 12 11 12 12 12 12 13 12 13 11 12 12 10 9
9 9 10 10 11 11 11 11 11 12 11 11 12 12 13 13 13 13 13 13 13 13 9 11 10 11 11 11 11 11 12 12 12 12 11 11 11 11 12 12 11 11 11 11 11 9 8
10 9 9 9 10 11 11 10 11 11 12 11 11 11 12 13 13 13 13 12 12 8 9 11 10 10 11 11 11 11 11 11 11 11 11 11 11 10 11 10 10 10 10 7 5 5 5
10 9 9 9 9 9 10 11 10 11 11 11 11 11 11 12 12 12 12 12 8 7 12 11 10 10 10 10 10 10 10 10 9 9 10 10 10 9 10 10 9 10 8 7 7 6 8
9 9 9 9 9 9 9 10 10 10 10 10 11 11 11 11 11 12 12 8 10 11 10 11 10 10 10 10 10 10 10 9 9 9 7 7 9 9 9 9 9 8 8 7 11 7 8
8 8 9 8 8 9 9 9 9 10 10 10 10 10 10 11 11 11 12 6 8 9 12 10 11 11 10 10 11 10 8 8 8 8 10 8 10 7 7 7 8 9 8 8 8 6 5
8 8 8 8 9 8 8 8 9 9 9 9 9 9 10 11 10 10 7 8 9 11 11 10 11 11 10 9 9 8 8 8 7 7 7 9 10 7 7 8 7 8 7 7 4 7 7
8 8 8 8 8 8 8 8 8 8 8 8 7 9 9 9 9 9 5 6 9 10 11 10 10 10 10 9 8 8 9 7 7 6 7 7 8 7 7 6 6 5 6 6 5 4 5
7 7 8 8 8 8 9 8 8 8 8 7 6 6 7 7 7 5 5 7 11 8 9 9 10 11 9 8 8 8 9 8 7 6 6 6 5 5 6 4 4 5 6 5 4 6 3
5 6 6 7 8 8 8 8 7 7 7 7 6 4 5 6 6 6 6 8 8 7 7 7 8 9 9 9 10 8 7 4 5 5 5 5 5 4 7 5 4 4 4 4 2 1 4
4 5 6 6 6 7 7 7 6 7 6 6 6 4 3 3 5 6 7 7 8 7 8 8 8 8 8 8 9 6 5 4 4 5 5 6 3 6 6 8 4 4 3 3 3 -1 5
3 4 5 5 6 5 5 6 7 7 6 6 5 3 3 3 2 3 5 6 8 7 6 7 7 7 8 7 7 6 4 2 3 4 4 3 4 2 3 4 4 5 5 3 2 4 3
3 3 4 4 5 5 5 5 6 6 5 5 4 3 2 2 3 3 3 3 6 7 5 5 5 7 6 7 8 6 3 3 4 2 2 1 3 3 3 3 2 2 2 3 3 4 1
3 3 3 3 4 4 4 5 5 5 4 4 4 4 4 3 2 2 2 3 5 5 4 3 4 4 4 6 5 4 4 4 4 1 0 0 1 1 2 1 1 2 0 2 1 -1 -1
2 3 3 3 3 4 4 3 3 4 4 5 5 4 3 3 2 3 3 1 2 3 2 2 3 4 3 4 4 4 3 2 1 -1 1 -1 1 1 -1 1 -0 -1 -6 -7 -5 -8 -11
2 3 2 3 3 3 3 3 3 3 4 3 4 4 3 2 2 2 2 1 0 -0 -0 -2 -1 0 2 3 2 2 2 2 -1 -3 -1 -1 1 1 0 -1 0 -4 -6 -5 -4 -4 -11
1 1 2 2 2 3 2 3 3 2 3 4 4 4 3 2 2 2 1 -0 -0 -1 -2 -3 -2 0 1 1 -0 1 2 3 -1 -2 -2 -1 -2 1 -1 1 -0 -4 -5 -5 -7 -4 -9
-0 0 1 1 2 2 2 2 2 2 1 2 3 3 3 2 1 1 1 0 0 -1 -1 -3 -3 -0 1 1 2 1 3 2 0 -1 -3 -2 -2 0 0 -1 -3 -6 -5 -5 -4 -3 -7
0 0 0 1 2 2 2 2 2 2 2 1 2 2 3 2 1 1 -0 -0 -2 -1 -2 -4 -3 -3 -3 -1 0 0 0 1 1 -1 -3 -1 -2 -3 -2 -2 -2 -6 -6 -4 -5 -7 -6
1 1 1 1 1 2 2 3 3 2 2 1 1 1 2 2 -1 -2 -3 -2 -2 -2 -2 -3 -2 -4 -3 -1 -2 -1 -1 -2 -1 -1 -1 -0 -0 -1 -2 -1 -6 -5 -5 -4 -4 -5 -6
Height
1558 1559 1559 1559 1558 1558 1558 1557 1556 1555 1553 1552 1550 1549 1548 1547 1546 1544 1542 1541 1539 1537 1536 1536 1535 1535 1536 1536 1535 1534 1534 1534 1534 1535 1535 1535 1534 1535 1537 1537 1539 1543 1546 1547 1549 1549 1551
1557 1557 1558 1559 1558 1557 1556 1556 1556 1555 1554 1552 1551 1549 1547 1547 1545 1544 1542 1540 1539 1537 1536 1535 1535 1535 1536 1537 1535 1534 1534 1534 1534 1534 1534 1535 1535 1535 1536 1538 1540 1543 1545 1549 1550 1551 1553
1559 1557 1556 1557 1557 1556 1555 1555 1555 1554 1553 1552 1550 1549 1547 1546 1544 1543 1542 1540 1539 1538 1537 1536 1535 1535 1535 1536 1534 1534 1534 1534 1533 1533 1534 1534 1535 1536 1537 1539 1542 1544 1549 1550 1551 1552 1553
1558 1558 1556 1555 1555 1555 1555 1554 1553 1552 1552 1551 1550 1548 1547 1545 1543 1543 1541 1540 1539 1538 1537 1536 1536 1535 1534 1534 1534 1534 1533 1533 1533 1533 1534 1534 1535 1536 1537 1540 1543 1547 1551 1556 1550 1551 1554
1556 1556 1556 1554 1553 1553 1553 1552 1551 1551 1551 1550 1549 1547 1546 1545 1543 1542 1541 1539 1538 1537 1536 1536 1537 1535 1535 1534 1534 1533 1533 1533 1533 1533 1534 1535 1536 1537 1540 1545 1554 1553 1559 1557 1551 1551 1553
1556 1553 1553 1553 1552 1551 1551 1550 1550 1549 1549 1548 1548 1547 1545 1545 1543 1541 1539 1539 1538 1537 1537 1536 1536 1538 1535 1534 1533 1533 1533 1533 1533 1534 1535 1536 1536 1541 1545 1551 1563 1557 1556 1552 1553 1550 1552
1553 1553 1551 1551 1550 1549 1548 1549 1548 1547 1547 1547 1546 1546 1544 1543 1542 1540 1539 1539 1541 1539 1536 1535 1535 1534 1533 1534 1534 1533 1533 1533 1533 1534 1537 1537 1543 1547 1543 1544 1542 1543 1547 1547 1544 1544 1549
1550 1551 1549 1548 1547 1547 1547 1546 1546 1545 1545 1545 1544 1544 1543 1542 1541 1539 1539 1538 1538 1538 1534 1533 1533 1533 1532 1532 1534 1533 1534 1535 1534 1536 1536 1542 1544 1539 1538 1539 1541 1542 1545 1547 1545 1545 1548
1547 1547 1547 1546 1545 1544 1544 1545 1543 1543 1542 1543 1542 1541 1541 1540 1539 1539 1538 1538 1537 1535 1535 1532 1532 1532 1533 1533 1532 1533 1534 1533 1533 1535 1537 1541 1538 1537 1538 1540 1542 1544 1546 1546 1546 1546 1546
1545 1544 1543 1544 1542 1542 1541 1541 1542 1541 1541 1540 1540 1539 1539 1539 1540 1538 1538 1537 1536 1536 1543 1533 1531 1531 1532 1532 1533 1532 1532 1534 1533 1535 1536 1537 1536 1537 1539 1539 1541 1543 1543 1543 1546 1552 1560
1542 1541 1540 1541 1540 1539 1538 1538 1537 1539 1539 1538 1537 1537 1536 1537 1537 1537 1538 1537 1536 1537 1568 1533 1531 1531 1531 1533 1533 1532 1532 1532 1533 1533 1537 1538 1538 1538 1540 1538 1539 1542 1543 1545 1547 1553 1557
1539 1538 1537 1537 1536 1535 1535 1535 1534 1534 1536 1536 1535 1534 1534 1534 1534 1535 1535 1536 1538 1551 1560 1531 1529 1530 1532 1532 1532 1532 1532 1533 1533 1534 1535 1537 1537 1538 1538 1540 1540 1542 1545 1552 1558 1562 1571
1534 1533 1533 1533 1532 1531 1531 1532 1532 1531 1531 1533 1533 1533 1532 1532 1532 1533 1534 1537 1552 1561 1528 1529 1529 1530 1531 1533 1533 1532 1534 1535 1537 1546 1542 1538 1538 1539 1539 1540 1542 1543 1552 1563 1565 1571 1555
1529 1529 1528 1528 1528 1527 1526 1527 1528 1529 1529 1528 1530 1530 1530 1530 1530 1531 1533 1539 1549 1528 1527 1523 1525 1528 1531 1530 1532 1533 1535 1538 1534 1535 1546 1548 1547 1541 1541 1543 1544 1548 1550 1561 1547 1561 1552
1524 1523 1523 1522 1522 1521 1522 1523 1523 1524 1525 1525 1525 1526 1527 1528 1528 1529 1531 1548 1538 1525 1517 1522 1526 1529 1531 1529 1530 1533 1536 1535 1532 1533 1538 1544 1538 1543 1543 1543 1545 1546 1552 1551 1553 1560 1567
1520 1519 1518 1518 1517 1516 1517 1518 1517 1518 1520 1522 1522 1523 1522 1524 1526 1528 1530 1528 1519 1513 1514 1516 1521 1520 1528 1528 1531 1533 1531 1528 1531 1531 1532 1535 1539 1543 1542 1542 1544 1544 1547 1556 1564 1556 1551
1513 1514 1514 1514 1513 1513 1512 1512 1513 1513 1515 1516 1519 1520 1518 1519 1523 1526 1529 1522 1511 1508 1509 1513 1515 1517 1520 1522 1526 1528 1524 1527 1526 1529 1531 1533 1536 1544 1543 1545 1543 1550 1549 1551 1555 1560 1558
1506 1507 1508 1509 1509 1509 1509 1507 1507 1507 1509 1510 1513 1518 1514 1515 1523 1518 1517 1509 1504 1505 1507 1508 1507 1508 1513 1515 1520 1523 1520 1520 1522 1524 1530 1530 1538 1545 1539 1541 1542 1543 1543 1547 1558 1550 1560
1501 1500 1500 1502 1502 1504 1504 1503 1501 1503 1502 1503 1507 1511 1511 1513 1514 1512 1507 1503 1502 1503 1503 1505 1505 1504 1506 1509 1513 1513 1515 1521 1521 1523 1526 1528 1538 1550 1536 1542 1541 1541 1539 1540 1548 1555 1547
1497 1496 1496 1496 1496 1496 1499 1498 1498 1500 1499 1501 1502 1507 1509 1509 1507 1507 1504 1500 1499 1498 1498 1499 1500 1502 1505 1506 1505 1512 1518 1521 1520 1520 1522 1524 1533 1527 1527 1519 1531 1537 1535 1535 1538 1561 1528
1491 1491 1491 1491 1492 1492 1493 1494 1494 1498 1498 1495 1495 1497 1501 1505 1505 1506 1507 1500 1494 1495 1497 1498 1500 1498 1498 1504 1507 1509 1515 1521 1521 1521 1522 1524 1529 1532 1529 1527 1527 1526 1526 1532 1534 1525 1530
1487 1486 1486 1486 1486 1488 1490 1487 1490 1489 1495 1494 1489 1492 1498 1499 1500 1504 1505 1503 1496 1493 1494 1498 1499 1494 1499 1500 1495 1502 1506 1513 1511 1521 1524 1525 1527 1528 1528 1526 1530 1528 1528 1524 1523 1519 1524
1481 1482 1483 1482 1482 1482 1484 1482 1484 1487 1490 1492 1490 1488 1489 1492 1496 1499 1500 1497 1493 1493 1495 1495 1496 1499 1501 1498 1499 1500 1501 1500 1503 1511 1521 1525 1528 1534 1531 1532 1531 1525 1520 1516 1518 1522 1522
1476 1477 1478 1479 1478 1478 1478 1479 1481 1484 1483 1486 1490 1487 1487 1490 1492 1490 1490 1495 1494 1493 1495 1496 1498 1499 1499 1498 1501 1504 1505 1506 1508 1511 1512 1521 1524 1529 1541 1533 1543 1516 1523 1526 1526 1528 1532
1471 1472 1473 1474 1474 1473 1475 1476 1476 1475 1480 1482 1484 1486 1483 1485 1487 1487 1488 1489 1490 1493 1494 1496 1498 1501 1501 1501 1504 1509 1510 1510 1515 1516 1515 1515 1516 1527 1532 1537 1516 1522 1522 1522 1522 1523 1527
1465 1466 1468 1468 1470 1469 1470 1471 1472 1473 1477 1477 1479 1480 1483 1484 1481 1483 1485 1486 1488 1492 1494 1493 1495 1499 1502 1501 1508 1506 1504 1498 1516 1518 1517 1517 1517 1517 1531 1526 1524 1519 1519 1518 1520 1527 1522
1458 1459 1461 1462 1463 1465 1466 1467 1468 1470 1470 1473 1473 1475 1476 1477 1479 1481 1480 1483 1483 1485 1489 1492 1495 1500 1502 1503 1501 1503 1497 1497 1505 1509 1521 1521 1521 1515 1519 1528 1520 1514 1517 1519 1531 1524 1521
1451 1452 1453 1454 1457 1459 1460 1462 1463 1465 1465 1469 1470 1471 1473 1474 1475 1476 1478 1480 1481 1481 1484 1492 1497 1497 1502 1503 1501 1498 1497 1494 1497 1503 1509 1507 1515 1522 1525 1529 1520 1510 1517 1520 1518 1517 1521
1447 1447 1448 1449 1451 1453 1455 1457 1458 1459 1460 1463 1467 1469 1469 1470 1473 1474 1475 1477 1479 1479 1480 1485 1484 1484 1487 1493 1496 1495 1496 1497 1497 1502 1500 1501 1496 1503 1506 1502 1504 1506 1507 1509 1511 1513 1520
Wind_Speed
2 3 4 5 6 8 8 8 7 6 5 5 5 6 7 8 8 8 9 8 6 4 2 2 2 4 4 2 1 1 2 1 1 1 2 3 4 2 4 3 4 5 3 8 11 11 13
1 1 3 5 6 7 7 7 8 8 7 6 7 6 7 7 8 8 8 8 6 4 2 1 3 5 4 2 2 3 1 0 1 2 3 3 4 6 6 4 4 5 9 11 4 7 8
5 3 3 5 6 6 7 7 7 8 8 7 7 8 8 8 8 9 8 7 6 3 2 1 3 4 3 3 1 1 1 1 2 2 4 6 7 4 5 5 8 13 5 2 3 5 5
8 9 7 6 6 7 7 6 7 8 8 8 7 8 9 8 8 8 8 6 6 3 2 2 3 1 1 2 2 1 1 1 2 4 5 7 7 6 3 11 5 4 4 2 2 7 4
8 10 11 8 7 7 7 8 7 7 8 8 8 8 9 10 9 7 7 6 4 2 1 3 4 2 1 3 1 1 1 2 3 5 6 7 5 4 5 5 4 4 2 3 2 11 4
11 8 10 11 8 8 8 7 8 8 8 9 9 9 9 10 10 8 6 4 2 2 2 3 4 1 3 2 2 2 2 3 3 6 6 3 3 3 3 4 5 5 3 3 4 6 5
13 13 10 11 12 9 8 9 8 9 9 9 9 10 9 9 10 8 6 4 4 3 4 3 2 2 2 2 0 0 2 5 5 3 3 2 4 4 7 5 4 3 4 4 3 5 5
10 14 13 11 10 12 11 9 10 9 9 9 9 10 9 9 9 8 6 4 5 2 3 3 2 3 3 4 1 1 3 2 2 3 4 5 3 4 3 4 3 3 3 3 1 3 4
11 12 15 12 12 10 12 13 11 11 10 10 10 10 9 9 8 6 5 3 2 1 2 3 5 3 3 4 2 2 3 3 2 3 4 5 1 2 2 1 3 1 4 3 2 1 1
16 13 14 15 13 12 12 13 14 12 12 10 10 10 10 9 7 5 4 3 1 2 4 3 3 3 4 3 2 2 3 2 1 6 6 2 1 3 2 3 4 2 4 2 3 3 4
21 16 15 16 15 14 13 13 13 15 13 12 10 10 10 7 5 5 4 2 0 1 3 1 3 4 4 4 3 2 2 2 3 4 5 4 5 3 3 3 1 4 2 2 1 2 4
19 21 20 18 16 15 16 14 14 14 15 13 12 10 9 8 7 6 3 1 3 5 6 2 3 2 2 2 2 2 1 1 2 2 2 1 1 1 1 2 2 4 4 6 4 3 1
20 16 20 22 21 17 15 17 16 13 13 14 13 12 9 8 5 4 4 4 5 4 0 4 4 3 2 4 1 3 2 1 4 4 3 2 1 1 1 2 4 3 4 3 4 2 5
20 21 17 20 22 22 19 17 17 17 14 12 13 13 12 9 8 7 8 4 3 4 6 2 4 3 5 5 2 3 2 2 3 3 2 5 5 3 2 1 3 3 5 4 5 3 4
20 22 24 21 21 19 23 22 20 19 18 15 12 13 13 11 10 10 9 3 8 7 4 8 3 3 3 3 3 3 6 4 3 6 7 4 2 1 3 2 1 2 2 1 1 1 2
19 16 17 22 21 17 20 22 19 21 21 18 13 11 14 10 12 12 3 7 6 4 5 3 9 5 7 6 6 5 7 2 5 3 2 4 1 1 1 2 2 3 3 3 2 3 5
25 25 25 21 24 22 21 20 18 21 19 19 12 5 7 15 14 9 4 8 6 7 9 7 8 6 6 7 8 5 6 2 5 5 3 4 3 1 1 5 7 2 2 1 2 4 4
22 24 25 22 23 23 25 19 21 23 17 14 10 3 6 15 7 4 4 7 6 7 6 3 4 5 9 8 8 6 9 2 8 9 7 5 4 5 7 1 1 1 4 5 4 4 4
23 21 19 20 21 20 20 18 21 23 19 13 6 8 6 16 4 4 5 4 5 5 6 7 8 5 4 8 4 6 4 3 5 6 7 6 2 1 4 2 1 4 5 4 4 3 7
22 22 20 19 18 19 21 20 17 20 18 12 7 2 4 11 9 4 4 6 6 8 4 4 4 5 3 5 3 6 5 4 6 5 6 5 3 6 7 4 5 5 6 6 6 4 6
21 20 20 20 21 19 18 17 23 21 21 18 10 4 6 3 5 8 9 6 4 6 3 4 1 6 7 6 5 6 4 3 1 6 5 5 6 3 4 5 3 5 5 8 10 11 10
21 20 19 19 19 20 19 18 17 18 18 16 9 7 9 4 3 3 9 4 7 1 5 5 5 3 4 5 7 9 8 5 5 2 5 1 2 3 3 4 5 6 9 12 13 12 8
22 20 19 18 16 15 18 19 19 19 20 13 11 8 6 6 3 5 4 6 3 4 4 4 3 2 7 4 5 8 6 7 11 9 7 6 5 3 3 3 6 8 13 16 3 1 3
24 20 20 19 16 13 13 15 18 19 20 21 17 11 7 3 4 5 7 3 6 6 3 2 2 5 5 16 16 12 15 14 11 7 5 6 6 3 2 2 3 4 2 3 3 2 2
22 22 20 19 18 15 14 13 18 16 17 19 20 13 5 2 5 3 8 5 4 3 4 2 1 3 17 4 3 3 2 2 1 4 4 2 4 3 3 3 7 1 4 5 5 5 6
23 24 24 22 19 18 18 15 14 17 20 23 18 17 14 2 6 4 4 7 3 2 1 2 5 10 4 3 3 5 6 4 4 1 4 3 4 3 3 3 6 4 3 5 4 4 12
20 24 27 27 24 20 21 18 16 14 20 23 19 20 13 7 7 8 4 4 8 5 2 4 7 5 6 3 4 4 3 3 5 7 5 3 1 8 5 4 7 3 8 6 5 4 17
16 17 19 21 20 24 22 19 18 16 21 20 21 17 21 8 9 10 9 6 6 7 4 9 6 4 2 3 4 3 3 3 2 4 6 7 7 4 4 4 9 14 7 6 3 13 19
11 14 15 17 20 23 22 20 19 17 22 17 21 17 17 9 3 8 9 11 12 7 8 19 1 5 8 3 3 1 3 2 2 3 1 4 4 5 8 5 2 24 3 8 12 22 18
Wind_Direction
59 10 0 6 2 359 355 352 346 339 338 337 340 342 347 346 343 340 341 344 346 347 334 274 207 185 177 199 178 303 345 328 265 208 174 132 99 76 100 87 82 85 121 71 105 115 102
270 350 337 337 342 345 346 345 337 333 329 329 330 333 335 337 337 333 336 336 337 339 331 255 195 192 201 217 276 288 276 208 217 183 170 159 132 103 98 79 79 116 113 126 117 110 115
275 278 294 308 317 321 327 329 330 328 326 325 325 327 327 332 334 331 329 329 326 329 313 208 183 183 206 200 281 280 259 240 176 164 147 146 143 160 124 103 124 128 89 74 152 148 135
280 282 280 290 298 304 307 311 319 320 318 316 318 322 321 326 331 326 321 323 316 318 266 196 187 224 218 164 134 71 195 193 148 144 144 146 135 113 103 125 85 81 65 96 218 160 159
283 282 279 279 285 290 293 296 302 309 310 310 312 314 318 320 326 323 320 313 301 269 226 194 209 225 204 184 247 280 203 158 146 142 140 145 143 103 120 89 36 9 193 195 299 200 139
300 293 285 280 277 282 284 289 294 299 306 308 310 311 315 316 322 323 326 302 276 235 196 170 211 211 202 230 289 298 232 165 140 130 123 127 79 73 43 84 202 188 202 219 215 204 169
315 301 294 287 282 279 284 287 290 293 299 304 306 307 312 316 319 318 315 283 259 244 214 227 213 220 204 224 157 338 153 164 147 128 120 61 83 198 212 190 172 148 186 199 237 184 143
310 306 296 287 285 284 284 283 288 289 292 297 302 303 306 311 315 312 309 291 277 240 286 239 214 217 221 198 233 349 171 163 160 157 116 33 210 208 162 166 169 186 199 262 325 133 162
289 298 301 291 284 280 288 287 285 288 288 294 296 299 300 301 302 298 309 299 295 339 270 239 210 219 200 189 205 224 191 171 179 143 169 156 228 151 180 186 168 106 172 202 203 68 309
283 284 293 295 287 282 282 286 287 285 287 287 291 293 295 298 293 276 282 294 326 342 50 239 221 207 185 175 253 191 170 170 156 184 156 204 153 163 160 191 141 203 181 158 146 104 233
285 273 280 285 290 287 283 281 282 283 282 285 283 287 289 288 274 284 278 262 128 42 0 161 169 172 180 185 158 193 179 173 182 179 107 251 161 165 180 206 185 218 113 101 115 120 22
274 281 276 271 275 285 290 287 283 283 282 281 281 278 277 277 266 264 263 228 118 48 257 192 150 164 126 217 210 152 129 123 114 85 44 109 71 74 201 75 45 133 88 39 52 94 305
259 265 275 276 272 269 274 282 287 283 283 281 278 277 264 256 242 215 188 145 46 149 307 198 201 161 196 199 228 175 174 197 167 93 230 5 227 37 103 107 16 90 69 320 338 354 232
270 268 271 270 273 272 266 267 273 279 278 273 275 272 267 248 231 208 165 66 207 230 204 137 137 132 182 157 229 171 116 267 230 111 123 170 304 157 24 69 194 171 156 167 254 232 277
277 269 271 276 272 275 271 263 261 267 270 274 270 268 263 248 223 197 164 122 211 208 162 147 80 160 222 198 200 157 200 209 194 178 182 158 261 24 57 37 84 180 193 173 72 53 24
265 267 268 264 267 268 262 262 263 264 265 264 265 268 255 235 211 188 114 224 216 200 145 141 184 167 191 196 167 184 190 189 175 167 170 192 162 247 214 133 63 167 162 72 6 257 260
259 261 265 277 277 272 268 273 261 261 261 262 248 243 229 197 187 189 195 226 218 204 186 169 194 171 208 181 182 204 208 196 180 163 158 150 126 203 101 204 182 125 213 94 125 169 208
258 259 260 264 264 262 280 248 254 248 246 247 212 233 198 180 180 224 197 201 191 185 190 200 166 177 183 172 180 214 207 231 173 160 166 185 143 195 206 93 42 231 216 157 141 239 248
266 263 261 255 256 264 255 255 276 258 232 215 193 197 178 188 202 225 262 251 215 158 202 188 203 196 202 178 192 186 179 149 166 164 161 179 191 57 322 14 66 204 199 164 124 100 209
275 266 264 261 260 255 259 264 288 257 233 208 160 165 208 200 248 291 215 224 215 207 209 185 168 138 139 197 231 179 162 199 181 153 148 151 174 196 198 176 134 192 205 183 153 154 231
280 276 265 259 259 261 261 257 252 262 252 212 178 193 183 192 261 256 314 326 192 196 205 183 284 227 178 176 177 194 133 141 166 175 158 148 207 189 265 237 238 216 198 196 199 220 208
273 278 272 266 259 259 256 253 245 252 251 222 169 155 177 197 207 353 203 240 242 149 141 223 217 263 213 195 194 191 144 186 185 150 159 172 200 123 285 283 222 246 230 237 229 236 259
255 270 273 270 266 258 255 251 248 236 241 280 236 188 164 166 159 147 199 232 298 90 245 242 271 127 226 242 80 81 114 135 150 149 165 154 142 113 258 360 326 284 217 224 190 55 168
243 257 263 265 263 259 255 251 246 230 227 232 260 219 165 212 203 190 180 201 263 189 238 338 333 201 159 129 111 90 68 77 88 56 141 146 138 136 230 30 238 242 177 167 152 225 208
241 250 259 264 261 257 255 253 248 239 239 238 241 231 195 196 211 205 208 179 170 196 176 159 283 336 146 133 67 48 357 35 44 27 28 30 138 154 185 210 311 297 204 178 164 255 194
240 242 246 251 252 259 258 255 256 242 226 242 241 247 236 209 212 216 167 179 163 132 117 197 181 168 192 89 138 187 195 186 207 126 7 83 61 146 138 209 244 241 184 161 139 299 180
252 246 244 247 240 248 255 253 252 248 233 226 245 233 212 189 203 183 174 190 179 163 104 129 150 168 163 202 207 203 234 158 181 176 171 138 134 209 199 224 282 188 154 140 90 249 170
259 252 248 246 234 241 251 252 250 250 235 226 237 240 218 216 216 215 220 184 172 177 154 146 122 163 83 184 203 219 201 216 153 141 176 168 152 182 152 202 264 149 117 172 175 138 161
263 257 252 246 241 244 249 246 243 233 235 222 228 234 232 222 188 219 219 220 217 192 180 174 264 143 157 163 199 172 202 156 133 224 215 195 186 177 189 206 147 172 137 172 156 157 168